Simultaneous Nadir Overpasses (SNOs) Predictions

Prediction of SNOs between METOP-B and TERRA Satellite Orbit:

Table of predicted SNOs for the next 14.0 days since TLE Epoch: 10/1/2022
Index Date (METOP-B) Time (METOP-B) Lat,Lon (METOP-B) SZA (METOP-B ) Date (TERRA) Time (TERRA) Lat,Lon (TERRA) SZA (TERRA ) Distance(km) Time Diff (sec)
1 10/01/2022 18:40:27 81.02, -62.77 86.47 10/01/2022 18:41:30 81.02, -62.63 86.51 2.31 63
2 10/01/2022 19:31:05 -81.06, 105.68 93.37 10/01/2022 19:30:55 -81.06, 105.62 93.38 1.08 10
3 10/04/2022 14:14:51 81.03, 3.93 87.62 10/04/2022 14:15:36 81.04, 4.03 87.65 1.61 45
4 10/04/2022 15:05:30 -81.06, 172.05 92.27 10/04/2022 15:05:02 -81.06, 171.94 92.30 1.98 28
5 10/07/2022 09:49:15 81.04, 70.58 88.75 10/07/2022 09:49:42 81.04, 70.54 88.75 0.84 27
6 10/07/2022 10:39:55 -81.06,-121.64 91.19 10/07/2022 10:39:08 -81.06,-121.53 91.19 1.96 47
7 10/10/2022 05:23:39 81.04, 136.81 89.81 10/10/2022 05:23:47 81.03, 136.90 89.82 1.59 8
8 10/10/2022 06:14:17 -81.08, -54.64 90.02 10/10/2022 06:13:12 -81.08, -54.79 90.07 2.64 65
9 10/13/2022 00:07:24 -81.02, 35.57 89.18 10/13/2022 00:08:27 -81.02, 35.52 89.16 0.89 63



Historial Predications of SNOs between METOP-B and TERRA
